When you browse on this site, cookies collect data to enhance your experience and personalize the content and advertising you see.
Visit our Privacy Policy to learn more. By continuing to use the site, you agree to this use of cookies and data.
  • In Spain
  • List of Countries
  • For 7 days
  • Water Temperature
  • Weather Map
  • Weather Widgets
  • user-avatar
    Login

    Hourly Weather Boma

    Today, 23 October, Wednesday

    Time Temperature Precipitation Wind Pressure Humidity
    00:00 +20°C° 0.2 mm 0 mps 699 mmHg 97%
    01:00 +20°C° 0.2 mm 0 mps 698 mmHg 98%
    02:00 +20°C° 0.3 mm 0 mps 698 mmHg 98%
    03:00 +22°C° 0.3 mm 1 mps 698 mmHg 98%
    04:00 +22°C° 0.3 mm 1 mps 698 mmHg 98%
    05:00 +22°C° 0.7 mm 1 mps 698 mmHg 98%
    06:00 +22°C° 0.7 mm 1 mps 699 mmHg 98%
    07:00 +22°C° 0.7 mm 1 mps 700 mmHg 98%
    08:00 +22°C° 0.4 mm 1 mps 700 mmHg 95%
    09:00 +23°C° 0.4 mm 1 mps 700 mmHg 91%
    10:00 +24°C° 0.4 mm 1 mps 700 mmHg 87%
    11:00 +25°C° 0.5 mm 1 mps 699 mmHg 83%
    12:00 +27°C° 0.5 mm 1 mps 699 mmHg 79%
    13:00 +28°C° 0.5 mm 2 mps 699 mmHg 75%
    14:00 +28°C° 0.6 mm 1 mps 698 mmHg 75%
    15:00 +28°C° 0.6 mm 1 mps 697 mmHg 75%
    16:00 +28°C° 0.6 mm 1 mps 696 mmHg 75%
    17:00 +26°C° 0.1 mm 1 mps 697 mmHg 81%
    18:00 +24°C° 0.1 mm 1 mps 697 mmHg 87%
    19:00 +23°C° 0.1 mm 1 mps 698 mmHg 93%
    20:00 +22°C° 0.3 mm 1 mps 698 mmHg 95%
    21:00 +22°C° 0.3 mm 1 mps 699 mmHg 97%
    22:00 +22°C° 0.3 mm 1 mps 699 mmHg 99%
    23:00 +20°C° 0.1 mm 0 mps 699 mmHg 98%

    Tomorrow, 24 October, Thursday

    Time Temperature Precipitation Wind Pressure Humidity
    00:00 +20°C° 0.1 mm 0 mps 699 mmHg 98%
    01:00 +20°C° 0.1 mm 0 mps 699 mmHg 98%
    02:00 +20°C° 0.1 mm 0 mps 698 mmHg 98%
    03:00 +20°C° 0.1 mm 0 mps 698 mmHg 98%
    04:00 +19°C° 0.1 mm 0 mps 698 mmHg 98%
    05:00 +20°C° 0 mm 0 mps 699 mmHg 97%
    06:00 +20°C° 0 mm 0 mps 699 mmHg 96%
    07:00 +20°C° 0 mm 0 mps 700 mmHg 95%
    08:00 +22°C° 0 mm 0 mps 700 mmHg 88%
    09:00 +23°C° 0 mm 0 mps 701 mmHg 81%
    10:00 +27°C° 0 mm 1 mps 701 mmHg 74%
    11:00 +28°C° 0.4 mm 1 mps 700 mmHg 73%
    12:00 +28°C° 0.4 mm 1 mps 699 mmHg 71%
    13:00 +29°C° 0.4 mm 1 mps 699 mmHg 70%
    14:00 +29°C° 0.4 mm 1 mps 698 mmHg 69%
    15:00 +29°C° 0.4 mm 1 mps 698 mmHg 67%
    16:00 +28°C° 0.4 mm 0 mps 698 mmHg 66%
    17:00 +26°C° 0 mm 0 mps 698 mmHg 76%
    18:00 +24°C° 0 mm 0 mps 698 mmHg 85%
    19:00 +22°C° 0 mm 0 mps 698 mmHg 94%
    20:00 +21°C° 0.4 mm 0 mps 698 mmHg 95%
    21:00 +21°C° 0.4 mm 0 mps 699 mmHg 96%
    22:00 +20°C° 0.4 mm 0 mps 699 mmHg 97%
    23:00 +20°C° 0.6 mm 0 mps 699 mmHg 97%

    Day after tomorrow, 25 October, Friday

    Time Temperature Precipitation Wind Pressure Humidity
    00:00 +20°C° 0.6 mm 0 mps 699 mmHg 98%
    01:00 +20°C° 0.6 mm 0 mps 699 mmHg 98%
    02:00 +20°C° 0.7 mm 0 mps 699 mmHg 98%
    03:00 +20°C° 0.7 mm 0 mps 698 mmHg 98%
    04:00 +19°C° 0.7 mm 0 mps 698 mmHg 99%
    05:00 +20°C° 0.3 mm 0 mps 699 mmHg 98%
    06:00 +20°C° 0.3 mm 0 mps 699 mmHg 98%
    07:00 +21°C° 0.3 mm 0 mps 700 mmHg 98%
    08:00 +24°C° 0 mm 1 mps 700 mmHg 93%
    09:00 +25°C° 0 mm 1 mps 700 mmHg 87%
    10:00 +26°C° 0 mm 1 mps 701 mmHg 82%
    11:00 +27°C° 0 mm 1 mps 700 mmHg 77%
    12:00 +28°C° 0 mm 1 mps 699 mmHg 73%
    13:00 +29°C° 0 mm 1 mps 698 mmHg 68%
    14:00 +29°C° 0 mm 1 mps 698 mmHg 66%
    15:00 +30°C° 0 mm 1 mps 698 mmHg 64%
    16:00 +28°C° 0 mm 0 mps 698 mmHg 62%
    17:00 +26°C° 1.2 mm 0 mps 698 mmHg 73%
    18:00 +24°C° 1.2 mm 0 mps 698 mmHg 84%
    19:00 +22°C° 1.2 mm 0 mps 698 mmHg 94%
    20:00 +21°C° 2.1 mm 0 mps 699 mmHg 95%
    21:00 +21°C° 2.1 mm 0 mps 699 mmHg 97%
    22:00 +23°C° 2.1 mm 1 mps 699 mmHg 98%
    23:00 +21°C° 0.9 mm 0 mps 699 mmHg 98%

    26 October, Saturday

    Time Temperature Precipitation Wind Pressure Humidity
    00:00 +20°C° 0.9 mm 0 mps 699 mmHg 98%
    01:00 +20°C° 0.9 mm 0 mps 699 mmHg 98%
    02:00 +22°C° 0.2 mm 1 mps 699 mmHg 98%
    03:00 +22°C° 0.2 mm 1 mps 699 mmHg 98%
    04:00 +22°C° 0.2 mm 1 mps 699 mmHg 99%
    05:00 +22°C° 0.1 mm 1 mps 699 mmHg 99%
    06:00 +22°C° 0.1 mm 1 mps 700 mmHg 98%
    07:00 +22°C° 0.1 mm 1 mps 700 mmHg 98%
    08:00 +23°C° 0.4 mm 1 mps 700 mmHg 97%
    09:00 +23°C° 0.4 mm 1 mps 701 mmHg 96%
    10:00 +24°C° 0.4 mm 1 mps 701 mmHg 95%
    11:00 +25°C° 0.3 mm 2 mps 700 mmHg 89%
    12:00 +26°C° 0.3 mm 2 mps 699 mmHg 82%
    13:00 +27°C° 0.3 mm 2 mps 699 mmHg 76%
    14:00 +27°C° 0.5 mm 2 mps 698 mmHg 77%
    15:00 +27°C° 0.5 mm 2 mps 698 mmHg 78%
    16:00 +26°C° 0.5 mm 1 mps 698 mmHg 80%
    17:00 +25°C° 0 mm 1 mps 698 mmHg 84%
    18:00 +24°C° 0 mm 1 mps 698 mmHg 88%
    19:00 +21°C° 0 mm 0 mps 698 mmHg 92%
    20:00 +23°C° 0.4 mm 1 mps 699 mmHg 94%
    21:00 +23°C° 0.4 mm 1 mps 699 mmHg 96%
    22:00 +22°C° 0.4 mm 1 mps 700 mmHg 98%
    23:00 +22°C° 1.4 mm 1 mps 700 mmHg 98%

    27 October, Sunday

    Time Temperature Precipitation Wind Pressure Humidity
    00:00 +22°C° 1.4 mm 1 mps 699 mmHg 99%
    01:00 +22°C° 1.4 mm 1 mps 699 mmHg 99%
    02:00 +22°C° 2 mm 1 mps 699 mmHg 99%
    03:00 +20°C° 2 mm 0 mps 699 mmHg 99%
    04:00 +20°C° 2 mm 0 mps 699 mmHg 99%
    05:00 +20°C° 1.9 mm 0 mps 699 mmHg 99%
    06:00 +20°C° 1.9 mm 0 mps 700 mmHg 99%
    07:00 +20°C° 1.9 mm 0 mps 700 mmHg 99%
    08:00 +20°C° 1.2 mm 0 mps 700 mmHg 99%
    09:00 +20°C° 1.2 mm 0 mps 700 mmHg 98%
    10:00 +21°C° 1.2 mm 0 mps 701 mmHg 98%
    11:00 +21°C° 0.5 mm 0 mps 700 mmHg 96%
    12:00 +22°C° 0.5 mm 0 mps 699 mmHg 93%
    13:00 +22°C° 0.5 mm 0 mps 698 mmHg 91%
    14:00 +23°C° 0.1 mm 0 mps 698 mmHg 87%
    15:00 +23°C° 0.1 mm 0 mps 698 mmHg 84%
    16:00 +23°C° 0.1 mm 0 mps 698 mmHg 81%
    17:00 +22°C° 0 mm 0 mps 698 mmHg 86%
    18:00 +21°C° 0 mm 0 mps 698 mmHg 91%
    19:00 +20°C° 0 mm 0 mps 699 mmHg 96%
    20:00 +20°C° 0.1 mm 0 mps 699 mmHg 96%
    21:00 +20°C° 0.1 mm 0 mps 699 mmHg 96%
    22:00 +20°C° 0.1 mm 0 mps 700 mmHg 97%
    23:00 +20°C° 0.9 mm 0 mps 700 mmHg 97%

    28 October, Monday

    Time Temperature Precipitation Wind Pressure Humidity
    00:00 +20°C° 0.9 mm 0 mps 699 mmHg 98%
    01:00 +19°C° 0.9 mm 0 mps 699 mmHg 99%
    02:00 +19°C° 0.8 mm 0 mps 699 mmHg 99%
    03:00 +21°C° 0.8 mm 1 mps 699 mmHg 99%
    04:00 +21°C° 0.8 mm 1 mps 699 mmHg 99%
    05:00 +21°C° 0.3 mm 1 mps 699 mmHg 98%
    06:00 +19°C° 0.3 mm 0 mps 700 mmHg 98%
    07:00 +19°C° 0.3 mm 0 mps 700 mmHg 98%
    08:00 +19°C° 0 mm 0 mps 700 mmHg 96%
    09:00 +20°C° 0 mm 0 mps 701 mmHg 94%
    10:00 +21°C° 0 mm 0 mps 701 mmHg 93%
    11:00 +22°C° 0.1 mm 0 mps 700 mmHg 86%
    12:00 +23°C° 0.1 mm 0 mps 700 mmHg 80%
    13:00 +27°C° 0.1 mm 1 mps 699 mmHg 74%
    14:00 +25°C° 0.2 mm 0 mps 699 mmHg 75%
    15:00 +25°C° 0.2 mm 0 mps 698 mmHg 76%
    16:00 +25°C° 0.2 mm 0 mps 698 mmHg 78%
    17:00 +23°C° 0.2 mm 0 mps 698 mmHg 83%
    18:00 +22°C° 0.2 mm 0 mps 698 mmHg 87%
    19:00 +21°C° 0.2 mm 0 mps 698 mmHg 92%
    20:00 +21°C° 1.3 mm 0 mps 699 mmHg 94%
    21:00 +20°C° 1.3 mm 0 mps 699 mmHg 96%
    22:00 +20°C° 1.3 mm 0 mps 699 mmHg 98%
    23:00 +20°C° 0.4 mm 0 mps 699 mmHg 98%

    29 October, Tuesday

    Time Temperature Precipitation Wind Pressure Humidity
    00:00 +20°C° 0.4 mm 0 mps 699 mmHg 98%
    01:00 +20°C° 0.4 mm 0 mps 699 mmHg 98%
    02:00 +20°C° 0.6 mm 0 mps 699 mmHg 99%
    03:00 +20°C° 0.6 mm 0 mps 699 mmHg 99%
    04:00 +19°C° 0.6 mm 0 mps 698 mmHg 99%
    05:00 +20°C° 0 mm 0 mps 699 mmHg 99%
    06:00 +20°C° 0 mm 0 mps 699 mmHg 98%
    07:00 +20°C° 0 mm 0 mps 699 mmHg 98%
    08:00 +21°C° 0 mm 0 mps 700 mmHg 95%
    09:00 +22°C° 0 mm 0 mps 700 mmHg 92%
    10:00 +22°C° 0 mm 0 mps 700 mmHg 90%
    11:00 +25°C° 0.1 mm 0 mps 700 mmHg 79%
    12:00 +27°C° 0.1 mm 0 mps 699 mmHg 68%
    13:00 +29°C° 0.1 mm 0 mps 699 mmHg 58%
    14:00 +28°C° 0.1 mm 0 mps 698 mmHg 58%
    15:00 +30°C° 0.1 mm 1 mps 698 mmHg 59%
    16:00 +29°C° 0.1 mm 1 mps 697 mmHg 60%
    17:00 +27°C° 0.2 mm 1 mps 697 mmHg 69%
    18:00 +23°C° 0.2 mm 0 mps 698 mmHg 78%
    19:00 +21°C° 0.2 mm 0 mps 698 mmHg 87%
    20:00 +21°C° 0.5 mm 0 mps 698 mmHg 89%
    21:00 +20°C° 0.5 mm 0 mps 699 mmHg 92%
    22:00 +20°C° 0.5 mm 0 mps 699 mmHg 94%
    23:00 +20°C° 0.4 mm 0 mps 699 mmHg 95%
    Show more